{"data":{"norad_id":57038,"intl_designator":"2023-085AL","name":"2023-085AL","alt_names":[],"object_type":"PAYLOAD","status":"ACTIVE","operator":null,"country":"PRC","launch_date":"2023-06-15","launch_site_code":"TAISC","launch_vehicle":null,"mission":null,"orbit_class":"UNKNOWN","rcs_meters":null,"size_class":null,"mass_kg":null,"dimensions":null,"purposes":[],"wikipedia_slug":null,"has_3d_model":false,"image_url":null,"decayed_at":null,"tle_current":{"epoch":"2026-05-25T04:02:16.081152Z","epoch_age_seconds":54431,"freshness":"FRESH","line1":"1 57038U 23085AL  26145.16824168  .00014874  00000+0  45166-3 0  9993","line2":"2 57038  97.4921 257.2108 0007775 153.0229 207.1419 15.34153798163224","mean_motion":15.34153798,"eccentricity":0.0007775,"inclination_deg":97.4921,"raan_deg":257.2108,"arg_perigee_deg":153.0229,"mean_anomaly_deg":207.1419,"bstar":0.00045166,"rev_number":16322,"period_min":93.862818830632,"perigee_km":458.11577998621,"apogee_km":468.75442460528,"semimajor_km":6841.5721022957,"source":"CELESTRAK","updated_at":"2026-05-25T13:37:59.796553Z"}}}